Location: ?????oe
(44.4874°N, 135.7046°E)
Time: 02:25:51
(UTC+00:00)

SL-24 R/B - Pass Details

Date: 13 December 2025
Orbit: 501 x 978 km, 97.4° (Epoch: 24 January)

Event Time Altitude Azimuth Distance (km) Brightness Sun altitude
Rises 20:32:10 0° 8° (N) 3,333 7.7 -19.4°
Reaches altitude 10° 20:34:42 10° 4° (N) 2,321 6.9 -18.9°
Maximum altitude 20:39:38 54° 289° (WNW) 845 4.3 -18.1°
Drops below altitude 10° 20:43:55 10° 212° (SSW) 2,012 6.5 -17.4°
Sets 20:46:00 0° 207° (SSW) 2,849 7.4 -17.0°
